Location: Big Prairie
(40.6673°N, 82.0952°W)
Time: 16:08:13
(UTC+00:00)

Cosmos 841 Rocket - Pass Details

Date: 05 July 2022
Orbit: 745 x 772 km, 74.0° (Epoch: 18 August)

Event Time Altitude Azimuth Distance (km) Brightness Sun altitude
Exits shadow 05:50:18 19° 97° (E) 1,746 5.3 -26.4°
Maximum altitude 05:50:22 19° 96° (E) 1,746 5.3 -26.4°
Drops below altitude 10° 05:53:51 10° 53° (NE) 2,276 6.4 -26.4°
Sets 05:56:52 0° 36° (NE) 3,210 7.6 -26.3°
